Weather Roundup
Issued by NWS Springfield, MO

Home | Current Version | Previous Version | Text Only | Print | Product List | Glossary Off
Versions: 1 2 3 4 5 6 7 8 9 10 11 12 13 14 15 16 17 18 19 20 21 22 23 24 25 26 27 28 29 30 31 32 33 34 35 36 37 38 39 40 41 42 43 44 45 46 47 48 49 50

921
NZUS99 KSGF 230957
HRRSGF

HOURLY WEATHER
NATIONAL WEATHER SERVICE SPRINGFIELD MO
400 AM CST THU FEB 23 2017

......SGF CWA......

CITY           SKY/WX    TMP DP  RH WIND       PRES   REMARKS
SPRINGFIELD    FOG       53  53 100 SE10      29.67F VSB 1/2
JOPLIN         CLEAR     58  54  86 S12       29.64F
WEST PLAINS    FOG       52  51  97 S3        29.75S VSB 1/4
ROLLA          PTCLDY    52  52 100 S9        29.69F FOG

......SURROUNDING SGF CWA......

CITY           SKY/WX    TMP DP  RH WIND       PRES   REMARKS
CHANUTE        CLEAR     50  44  80 E6        29.64R
PARSONS        CLEAR     48  45  89 CALM      29.63S
COFFEYVILLE    CLEAR     53  47  79 S5        29.63R
EMPORIA        MOCLDY    54  39  57 NE12      29.63F
HARRISON AR    FOG       51  51 100 SE8       29.71S VSB 1/4

......KANSAS AND MISSOURI......

CITY           SKY/WX    TMP DP  RH WIND       PRES   REMARKS
KANSAS CTY INT CLOUDY    50  40  68 NE15      29.69F
SEDALIA        PTCLDY    50  49  96 NE7       29.69F
ST JOSEPH      CLOUDY    49  40  71 NE12      29.71F
ST LOUIS       PTCLDY    53  49  86 CALM      29.73R
WICHITA        PTCLDY    48  43  82 NE7       29.59F
TOPEKA         CLOUDY    52  39  61 NE12G18   29.68R
OLATHE         CLOUDY    53  40  61 NE15G22   29.66F

......TENNESSEE......

CITY           SKY/WX    TMP DP  RH WIND       PRES   REMARKS
MEMPHIS        NOT AVBL
NASHVILLE      CLEAR     54  52  93 S5        29.83F FOG

......ARKANSAS.......

CITY           SKY/WX    TMP DP  RH WIND       PRES   REMARKS
FAYETTEVILLE   PTCLDY    47  47 100 CALM      29.69S
FT SMITH       MOCLDY    55  52  89 NE7       29.69F
LITTLE ROCK    FOG       48  48 100 CALM      29.76S VSB 1/2

......OKLAHOMA.......

CITY           SKY/WX    TMP DP  RH WIND       PRES   REMARKS
TULSA          CLOUDY    57  52  83 SE7       29.60F
PONCA CITY     CLOUDY    45  39  79 SE5       29.57F
MCALESTER      PTCLDY    62  51  67 S5        29.64F
OKLAHOMA CITY  CLOUDY    55  46  71 S12       29.58F

......IOWA............

CITY           SKY/WX    TMP DP  RH WIND       PRES   REMARKS
DES MOINES     NOT AVBL
QUAD CITIES    PTCLDY   N/A N/A N/A NW12      29.75R

......ILLINOIS........

CITY           SKY/WX    TMP DP  RH WIND       PRES   REMARKS
QUINCY         NOT AVBL
CHICAGO        CLEAR     50  45  83 W5        29.68R




USA.gov is the U.S. government's official web portal to all federal, state and local government web resources and services.